{"data":{"norad_id":61562,"intl_designator":"2024-185L","name":"QIANFAN-29","alt_names":[],"object_type":"PAYLOAD","status":"ACTIVE","operator":null,"country":"PRC","launch_date":"2024-10-15","launch_site_code":"TAISC","launch_vehicle":null,"mission":null,"orbit_class":"UNKNOWN","rcs_meters":null,"size_class":null,"mass_kg":null,"dimensions":null,"purposes":[],"wikipedia_slug":null,"has_3d_model":false,"image_url":null,"decayed_at":null,"tle_current":{"epoch":"2026-09-22T19:59:52.591776Z","epoch_age_seconds":95871,"freshness":"FRESH","line1":"1 61562U 24185L   26265.83324759  .00000139  00000+0  19621-3 0  9996","line2":"2 61562  88.9806  51.9463 0008397 316.3707  43.6780 13.51095209106159","mean_motion":13.51095209,"eccentricity":0.0008397,"inclination_deg":88.9806,"raan_deg":51.9463,"arg_perigee_deg":316.3707,"mean_anomaly_deg":43.678,"bstar":0.00019621,"rev_number":10615,"period_min":106.58020178058,"perigee_km":1061.9790283079,"apogee_km":1074.4844599768,"semimajor_km":7446.3687441423,"source":"CELESTRAK","updated_at":"2026-09-23T09:00:20.905604Z"}}}